WA6MEM Weather Reports


time (UTC)temp
C
wind
direction
speed
KPH
gust
KPH
rain 1hr
cm
rain 24hr
cm
rain mn
cm
humidity
%
barometer
mb
20260506195513 16 173 6.4 0.0 0.00 0.00 0.03 66 1016.6
20260506195013 16 169 6.4 0.0 0.00 0.00 0.03 72 1016.6
20260506194513 16 360 8.0 0.0 0.00 0.00 0.03 71 1016.6
20260506194017 16 200 6.4 0.0 0.00 0.00 0.03 69 1016.5
20260506193512 16 171 6.4 0.0 0.00 0.00 0.03 71 1016.5
20260506193014 16 219 6.4 0.0 0.00 0.00 0.03 74 1016.5
20260506192511 16 360 6.4 0.0 0.00 0.00 0.03 74 1016.8
20260506192011 16 148 6.4 0.0 0.00 0.00 0.03 75 1016.8
20260506191511 16 152 6.4 0.0 0.00 0.00 0.03 74 1016.8
20260506191011 16 185 6.4 0.0 0.00 0.00 0.03 71 1016.9
20260506190518 16 155 6.4 0.0 0.00 0.00 0.03 71 1016.9
20260506190013 16 360 6.4 0.0 0.00 0.00 0.03 73 1016.9
20260506185508 16 244 4.8 0.0 0.00 0.00 0.03 75 1017.0
20260506185008 16 360 6.4 0.0 0.00 0.00 0.03 74 1017.0
20260506184510 16 131 4.8 0.0 0.00 0.00 0.03 75 1017.0
20260506184013 16 162 4.8 0.0 0.00 0.00 0.03 75 1017.1
20260506183507 16 360 6.4 0.0 0.00 0.00 0.03 76 1017.1
20260506183013 16 360 4.8 0.0 0.00 0.00 0.03 77 1017.1
20260506182506 16 204 4.8 0.0 0.00 0.00 0.03 78 1017.1
20260506182010 16 172 6.4 0.0 0.00 0.00 0.03 77 1017.1
20260506181512 16 162 6.4 0.0 0.00 0.00 0.03 78 1017.1
20260506181010 16 174 6.4 0.0 0.00 0.00 0.03 78 1017.2
20260506180505 16 172 4.8 0.0 0.00 0.00 0.03 79 1017.2
20260506180005 16 65 4.8 0.0 0.00 0.00 0.03 80 1017.2
20260506175504 16 360 4.8 0.0 0.00 0.00 0.03 80 1017.1
20260506175002 16 190 4.8 0.0 0.00 0.00 0.03 80 1017.1
20260506174502 16 190 4.8 0.0 0.00 0.00 0.03 80 1017.1
20260506174002 15 107 4.8 0.0 0.00 0.00 0.03 81 1017.1
20260506173503 15 169 4.8 0.0 0.00 0.00 0.03 82 1017.1
20260506173002 15 171 4.8 0.0 0.00 0.00 0.03 82 1017.1
20260506172502 15 186 4.8 0.0 0.00 0.00 0.03 81 1017.1
20260506172003 15 144 4.8 0.0 0.00 0.00 0.03 81 1017.1
20260506171605 15 197 4.8 0.0 0.00 0.00 0.03 81 1017.1
20260506171103 15 132 3.2 0.0 0.00 0.00 0.03 81 1016.9
20260506170601 15 163 3.2 0.0 0.00 0.00 0.03 82 1016.9
20260506170058 15 175 4.8 0.0 0.00 0.00 0.03 82 1016.9
20260506165600 15 221 3.2 0.0 0.00 0.00 0.03 83 1016.9
20260506165057 15 212 3.2 0.0 0.00 0.00 0.03 83 1016.9
20260506164607 15 175 3.2 0.0 0.00 0.00 0.03 84 1016.9
20260506164058 15 166 3.2 0.0 0.00 0.00 0.03 84 1016.8
20260506163555 15 189 4.8 0.0 0.00 0.00 0.03 85 1016.8
20260506163055 15 209 3.2 0.0 0.00 0.00 0.03 85 1016.8
20260506162554 15 175 3.2 0.0 0.00 0.00 0.03 86 1016.8
20260506162056 14 209 3.2 0.0 0.00 0.00 0.03 87 1016.8
20260506161551 14 188 4.8 0.0 0.00 0.00 0.03 87 1016.8
20260506161053 14 121 4.8 0.0 0.00 0.00 0.03 87 1016.9
20260506160549 13 203 4.8 0.0 0.00 0.00 0.03 88 1016.9
20260506160053 13 142 4.8 0.0 0.00 0.00 0.03 89 1016.9
20260506155549 13 161 4.8 0.0 0.00 0.00 0.03 90 1016.8
20260506155045 13 184 3.2 0.0 0.00 0.00 0.03 91 1016.8
20260506154543 13 195 3.2 0.0 0.00 0.00 0.03 92 1016.8
20260506154044 13 171 3.2 0.0 0.00 0.00 0.03 91 1016.9
20260506153542 12 207 3.2 0.0 0.00 0.00 0.03 91 1016.9
20260506153104 12 138 3.2 0.0 0.00 0.00 0.03 91 1016.9
20260506152540 12 170 1.6 0.0 0.00 0.00 0.03 91 1017.0
20260506152040 12 190 1.6 0.0 0.00 0.00 0.03 91 1017.0
20260506151543 12 192 1.6 0.0 0.00 0.00 0.03 92 1017.0
20260506151042 12 173 1.6 0.0 0.00 0.00 0.03 93 1016.9
20260506150537 12 173 1.6 0.0 0.00 0.00 0.03 93 1016.9
20260506150042 12 219 1.6 0.0 0.00 0.00 0.03 94 1016.9
20260506145535 11 163 1.6 0.0 0.00 0.00 0.03 94 1017.0
20260506145034 11 135 1.6 0.0 0.00 0.00 0.03 94 1017.0
20260506144533 11 139 1.6 0.0 0.00 0.00 0.03 94 1017.0
20260506144033 11 103 1.6 0.0 0.00 0.00 0.03 94 1017.0
20260506143533 11 175 0.0 0.0 0.00 0.00 0.03 95 1017.0
20260506143033 11 109 0.0 0.0 0.00 0.00 0.03 95 1017.0
20260506142532 11 65 0.0 0.0 0.00 0.00 0.03 95 1017.0
20260506142032 11 65 0.0 0.0 0.00 0.00 0.03 95 1017.0
20260506141531 11 65 0.0 0.0 0.00 0.00 0.03 95 1017.0
20260506141031 11 65 0.0 0.0 0.00 0.00 0.03 95 1016.9
20260506140530 11 355 0.0 0.0 0.00 0.00 0.03 95 1016.9
20260506140030 11 355 0.0 0.0 0.00 0.00 0.03 95 1016.9
20260506135528 11 355 0.0 0.0 0.00 0.00 0.03 95 1016.7
20260506135028 10 355 0.0 0.0 0.00 0.00 0.03 95 1016.7
20260506134531 10 355 0.0 0.0 0.00 0.00 0.03 95 1016.7
20260506134028 10 355 0.0 0.0 0.00 0.00 0.03 95 1016.7
20260506133528 10 355 0.0 0.0 0.00 0.00 0.03 95 1016.7
20260506133028 10 355 0.0 0.0 0.00 0.00 0.03 95 1016.7
20260506132531 10 355 0.0 0.0 0.00 0.00 0.03 95 1016.5
20260506132027 10 355 0.0 0.0 0.00 0.00 0.03 95 1016.5
20260506131534 10 5 0.0 0.0 0.00 0.00 0.03 95 1016.5
20260506131027 10 5 0.0 0.0 0.00 0.00 0.03 95 1016.3
20260506130527 10 5 0.0 0.0 0.00 0.00 0.03 95 1016.3
20260506130027 10 5 0.0 0.0 0.00 0.00 0.03 95 1016.3
20260506125525 10 5 0.0 0.0 0.00 0.00 0.03 95 1016.0
20260506125028 10 5 0.0 0.0 0.00 0.00 0.00 95 1016.0
20260506124525 10 5 0.0 0.0 0.00 0.00 0.00 95 1016.0
20260506124025 10 5 0.0 0.0 0.00 0.00 0.00 95 1015.9
20260506123526 10 5 0.0 0.0 0.00 0.00 0.00 95 1015.9
20260506123024 10 5 0.0 0.0 0.00 0.00 0.00 95 1015.9
20260506122525 10 5 0.0 0.0 0.00 0.00 0.00 95 1015.8
20260506122026 10 5 0.0 0.0 0.00 0.00 0.00 95 1015.8
20260506121524 10 5 0.0 0.0 0.00 0.00 0.00 94 1015.8
20260506121024 10 5 0.0 0.0 0.00 0.00 0.00 94 1015.9
20260506120527 10 5 0.0 0.0 0.00 0.00 0.00 94 1015.9
20260506120024 10 5 0.0 0.0 0.00 0.00 0.00 95 1015.9
20260506115526 10 5 0.0 0.0 0.00 0.00 0.00 95 1015.8
20260506115023 10 5 0.0 0.0 0.00 0.00 0.00 94 1015.8
20260506114528 10 5 0.0 0.0 0.00 0.00 0.00 94 1015.8
20260506114023 10 5 0.0 0.0 0.00 0.00 0.00 94 1015.8
20260506113523 10 5 0.0 0.0 0.00 0.00 0.00 94 1015.8
20260506113035 10 5 0.0 0.0 0.00 0.00 0.00 94 1015.8
20260506112522 10 5 0.0 0.0 0.00 0.00 0.00 94 1015.8
20260506112022 10 5 0.0 0.0 0.00 0.00 0.00 94 1015.8
20260506111522 10 5 0.0 0.0 0.00 0.00 0.00 94 1015.8
20260506111023 10 5 0.0 0.0 0.00 0.00 0.00 95 1015.7
20260506110523 10 5 0.0 0.0 0.00 0.00 0.00 94 1015.7
20260506110022 10 5 0.0 0.0 0.00 0.00 0.00 94 1015.7
20260506105521 10 5 0.0 0.0 0.00 0.00 0.00 94 1015.7
20260506105022 10 5 0.0 0.0 0.00 0.00 0.00 94 1015.7
20260506104524 10 5 0.0 0.0 0.00 0.00 0.00 94 1015.7
20260506104020 10 5 0.0 0.0 0.00 0.00 0.00 94 1015.7
20260506103521 10 5 0.0 0.0 0.00 0.00 0.00 94 1015.7
20260506103025 10 5 0.0 0.0 0.00 0.00 0.00 94 1015.7
20260506102520 10 5 0.0 0.0 0.00 0.00 0.00 94 1015.7
20260506102020 10 5 0.0 0.0 0.00 0.00 0.00 94 1015.7
20260506101520 10 5 0.0 0.0 0.00 0.00 0.00 94 1015.7
20260506101019 10 5 0.0 0.0 0.00 0.00 0.00 94 1015.6
20260506100519 10 5 0.0 0.0 0.00 0.00 0.00 94 1015.6
20260506100019 10 5 0.0 0.0 0.00 0.00 0.00 94 1015.6
20260506095518 10 5 0.0 0.0 0.00 0.00 0.00 94 1015.7
20260506095018 10 5 0.0 0.0 0.00 0.00 0.00 94 1015.7
20260506094517 9 5 0.0 0.0 0.00 0.00 0.00 94 1015.7
20260506094016 10 5 0.0 0.0 0.00 0.00 0.00 94 1015.7
20260506093516 10 5 0.0 0.0 0.00 0.00 0.00 94 1015.7
20260506093015 10 257 0.0 0.0 0.00 0.00 0.00 94 1015.7
20260506092515 10 257 0.0 0.0 0.00 0.00 0.00 94 1015.7
20260506092014 10 257 0.0 0.0 0.00 0.00 0.00 94 1015.7
20260506091513 10 257 0.0 0.0 0.00 0.00 0.00 94 1015.7
20260506091013 10 257 0.0 0.0 0.00 0.00 0.00 94 1015.8
20260506090511 10 257 0.0 0.0 0.00 0.00 0.00 94 1015.8
20260506090015 11 257 0.0 0.0 0.00 0.00 0.00 94 1015.8
20260506085509 11 257 0.0 0.0 0.00 0.00 0.00 94 1016.0
20260506085011 11 257 0.0 0.0 0.00 0.00 0.00 94 1016.0
20260506084509 11 257 0.0 0.0 0.00 0.00 0.00 94 1016.0
20260506084012 11 165 0.0 0.0 0.00 0.00 0.00 94 1016.0
20260506083509 11 165 0.0 0.0 0.00 0.00 0.00 94 1016.0
20260506083008 11 165 0.0 0.0 0.00 0.00 0.00 94 1016.0
20260506082508 11 186 0.0 0.0 0.00 0.00 0.00 94 1016.1
20260506082010 11 186 1.6 0.0 0.00 0.00 0.00 94 1016.1
20260506081509 11 184 1.6 0.0 0.00 0.00 0.00 94 1016.1
20260506081013 11 167 1.6 0.0 0.00 0.00 0.00 94 1016.2
20260506080508 11 184 1.6 0.0 0.00 0.00 0.00 94 1016.2
20260506073505 11 172 0.0 0.0 0.00 0.00 0.00 94 1016.2
20260506073005 11 172 1.6 0.0 0.00 0.00 0.00 94 1016.2
20260506072505 11 172 1.6 0.0 0.00 0.00 0.00 94 1016.1
20260506072005 11 172 1.6 0.0 0.00 0.00 0.00 94 1016.1
20260506071505 11 170 1.6 0.0 0.00 0.00 0.00 94 1016.1
20260506071006 11 174 1.6 0.0 0.00 0.00 0.00 94 1016.0
20260506070503 11 182 1.6 0.0 0.00 0.00 0.00 94 1016.0
20260506062502 11 171 3.2 0.0 0.00 0.00 0.00 94 1015.7
20260506062002 11 360 1.6 0.0 0.00 0.00 0.00 94 1015.7
20260506061501 11 167 1.6 0.0 0.00 0.00 0.00 93 1015.7
20260506061003 11 166 3.2 0.0 0.00 0.00 0.00 93 1015.7
20260506060501 11 169 3.2 0.0 0.00 0.00 0.00 93 1015.7
20260506051058 11 166 3.2 0.0 0.00 0.00 0.00 93 1015.2
20260506050558 11 167 3.2 0.0 0.00 0.00 0.00 93 1015.2
20260506050106 11 161 3.2 0.0 0.00 0.00 0.00 93 1015.2
20260506045056 11 161 1.6 0.0 0.00 0.00 0.00 92 1015.1
20260506044556 11 176 1.6 0.0 0.00 0.00 0.00 92 1015.1
20260506044056 11 175 1.6 0.0 0.00 0.00 0.00 92 1015.0
20260506043556 11 178 1.6 0.0 0.00 0.00 0.00 92 1015.0
20260506043100 11 160 1.6 0.0 0.00 0.00 0.00 92 1015.0
20260506042557 11 160 1.6 0.0 0.00 0.00 0.00 91 1014.7
20260506042057 12 160 1.6 0.0 0.00 0.00 0.00 91 1014.7
20260506041601 12 160 1.6 0.0 0.00 0.00 0.00 91 1014.7
20260506041056 12 160 1.6 0.0 0.00 0.00 0.00 90 1014.7
20260506040555 11 169 3.2 0.0 0.00 0.00 0.00 89 1014.7
20260506040055 11 177 3.2 0.0 0.00 0.00 0.00 88 1014.7
20260506035558 11 166 3.2 0.0 0.00 0.00 0.00 87 1014.5
20260506035056 11 182 3.2 0.0 0.00 0.00 0.00 86 1014.5
20260506034612 11 193 3.2 0.0 0.00 0.00 0.00 86 1014.5
20260506034056 11 179 3.2 0.0 0.00 0.00 0.00 86 1014.3
20260506033554 11 171 1.6 0.0 0.00 0.00 0.00 86 1014.3
20260506033053 11 165 1.6 0.0 0.00 0.00 0.00 88 1014.3
20260506032559 11 165 1.6 0.0 0.00 0.00 0.00 88 1014.2
20260506032058 11 165 1.6 0.0 0.00 0.00 0.00 89 1014.2
20260506031601 12 195 0.0 0.0 0.00 0.00 0.00 89 1014.2
20260506031053 12 195 1.6 0.0 0.00 0.00 0.00 90 1014.0
20260506030554 12 195 1.6 0.0 0.00 0.00 0.00 90 1014.0
20260506030052 12 195 1.6 0.0 0.00 0.00 0.00 89 1014.0
20260506025553 12 205 3.2 0.0 0.00 0.00 0.00 89 1013.6
20260506025051 12 202 3.2 0.0 0.00 0.00 0.00 89 1013.6
20260506024607 12 200 3.2 0.0 0.00 0.00 0.00 88 1013.6
20260506024052 12 183 3.2 0.0 0.00 0.00 0.00 88 1013.6
20260506023552 12 165 3.2 0.0 0.00 0.00 0.00 88 1013.6
20260506023051 12 159 4.8 0.0 0.00 0.00 0.00 87 1013.6
20260506022551 12 136 4.8 0.0 0.00 0.00 0.00 86 1013.3
20260506022051 12 169 4.8 0.0 0.00 0.00 0.00 86 1013.3
20260506021552 12 205 4.8 0.0 0.00 0.00 0.00 85 1013.3
20260506021051 13 205 4.8 0.0 0.00 0.00 0.00 85 1013.3
20260506020552 13 179 4.8 0.0 0.00 0.00 0.00 85 1013.3
20260506020051 13 182 4.8 0.0 0.00 0.00 0.00 85 1013.3
20260506015551 13 182 3.2 0.0 0.00 0.00 0.00 86 1013.1
20260506015050 13 156 4.8 0.0 0.00 0.00 0.00 85 1013.1
20260506014551 13 169 4.8 0.0 0.00 0.00 0.00 85 1013.1
20260506014049 13 217 3.2 0.0 0.00 0.00 0.00 84 1013.0
20260506013553 13 182 3.2 0.0 0.00 0.00 0.00 83 1013.0
20260506013103 13 180 4.8 0.0 0.00 0.00 0.00 82 1013.0
20260506012550 14 221 4.8 0.0 0.00 0.00 0.00 81 1013.0
20260506012050 14 211 4.8 0.0 0.00 0.00 0.00 80 1013.0
20260506011604 15 215 4.8 0.0 0.00 0.00 0.00 79 1013.0
20260506011049 15 171 6.4 0.0 0.00 0.00 0.00 79 1013.0
20260506010549 15 213 4.8 0.0 0.00 0.00 0.00 76 1013.0
20260506010050 15 218 4.8 0.0 0.00 0.00 0.00 77 1013.0
20260506005549 15 187 6.4 0.0 0.00 0.00 0.00 76 1013.0
20260506005051 15 196 6.4 0.0 0.00 0.00 0.00 77 1013.0
20260506004548 14 205 6.4 0.0 0.00 0.00 0.00 78 1013.0
20260506004048 14 235 6.4 0.0 0.00 0.00 0.00 79 1013.1
20260506003548 14 226 6.4 0.0 0.00 0.00 0.00 79 1013.1
20260506003048 14 197 6.4 0.0 0.00 0.00 0.00 80 1013.1
20260506002547 14 255 6.4 0.0 0.00 0.00 0.00 80 1013.0
20260506002049 13 155 6.4 0.0 0.00 0.00 0.00 81 1013.0
20260506001548 13 175 6.4 0.0 0.00 0.00 0.00 82 1013.0
20260506001048 13 188 8.0 0.0 0.00 0.00 0.00 81 1013.0
20260506000548 13 181 8.0 0.0 0.00 0.00 0.00 80 1013.0
20260506000050 13 190 8.0 0.0 0.00 0.00 0.00 78 1013.0
20260505235547 14 175 8.0 0.0 0.00 0.00 0.00 78 1013.1
20260505235047 14 219 6.4 0.0 0.00 0.00 0.00 79 1013.1
20260505234546 14 207 8.0 0.0 0.00 0.00 0.00 79 1013.1
20260505234045 14 210 8.0 0.0 0.00 0.00 0.00 78 1013.0
20260505233545 15 186 8.0 0.0 0.00 0.00 0.00 76 1013.0
20260505233045 15 190 9.7 0.0 0.00 0.00 0.00 76 1013.0
20260505232545 15 186 8.0 0.0 0.00 0.00 0.00 75 1012.9
20260505232049 15 187 6.4 0.0 0.00 0.00 0.00 76 1012.9
20260505231546 15 182 8.0 0.0 0.00 0.00 0.00 77 1012.9
20260505231049 15 124 8.0 0.0 0.00 0.00 0.00 77 1012.9
20260505230545 15 180 6.4 0.0 0.00 0.00 0.00 76 1012.9
20260505230056 15 213 6.4 0.0 0.00 0.00 0.00 75 1012.9
20260505225546 15 237 8.0 0.0 0.00 0.00 0.00 77 1013.0
20260505225044 15 204 8.0 0.0 0.00 0.00 0.00 74 1013.0
20260505224547 15 258 8.0 0.0 0.00 0.00 0.00 72 1013.0
20260505224046 15 169 8.0 0.0 0.00 0.00 0.00 72 1013.2
20260505223543 15 229 8.0 0.0 0.00 0.00 0.00 72 1013.2
20260505223055 15 173 9.7 0.0 0.00 0.00 0.00 71 1013.2
20260505222543 15 242 8.0 0.0 0.00 0.00 0.00 68 1013.3
20260505222047 15 237 8.0 0.0 0.00 0.00 0.00 67 1013.3
20260505221544 15 205 8.0 0.0 0.00 0.00 0.00 67 1013.3
20260505221047 15 181 8.0 0.0 0.00 0.00 0.00 66 1013.4
20260505220542 15 181 8.0 0.0 0.00 0.00 0.00 67 1013.4
20260505220045 15 157 8.0 0.0 0.00 0.00 0.00 66 1013.4
20260505215542 15 211 8.0 0.0 0.00 0.00 0.00 67 1013.4
20260505215042 16 153 6.4 0.0 0.00 0.00 0.00 69 1013.4
20260505214542 16 119 6.4 0.0 0.00 0.00 0.00 70 1013.4
20260505214042 15 173 8.0 0.0 0.00 0.00 0.00 68 1013.5
20260505213545 16 185 8.0 0.0 0.00 0.00 0.00 68 1013.5
20260505213053 16 188 6.4 0.0 0.00 0.00 0.00 67 1013.5
20260505212541 16 212 4.8 0.0 0.00 0.00 0.00 70 1013.6
20260505212041 15 223 6.4 0.0 0.00 0.00 0.00 69 1013.6
20260505211541 15 208 8.0 0.0 0.00 0.00 0.00 70 1013.6
20260505211041 15 155 8.0 0.0 0.00 0.00 0.00 69 1013.5
20260505210540 15 191 8.0 0.0 0.00 0.00 0.00 66 1013.5
20260505210040 16 163 6.4 0.0 0.00 0.00 0.00 67 1013.5
20260505205540 15 200 6.4 0.0 0.00 0.00 0.00 66 1013.5
20260505205039 15 173 6.4 0.0 0.00 0.00 0.00 67 1013.5
20260505204540 15 160 8.0 0.0 0.00 0.00 0.00 67 1013.5
20260505204039 15 186 8.0 0.0 0.00 0.00 0.00 70 1013.5
20260505203539 15 153 8.0 0.0 0.00 0.00 0.00 67 1013.5
20260505203046 15 202 6.4 0.0 0.00 0.00 0.00 68 1013.5
20260505202539 15 192 6.4 0.0 0.00 0.00 0.00 67 1013.5
20260505202039 15 241 8.0 0.0 0.00 0.00 0.00 69 1013.5
20260505201541 15 163 8.0 0.0 0.00 0.00 0.00 67 1013.5
20260505201039 15 207 6.4 0.0 0.00 0.00 0.00 68 1013.5
20260505200539 15 210 8.0 0.0 0.00 0.00 0.00 68 1013.5
20260505200037 15 163 8.0 0.0 0.00 0.00 0.00 65 1013.5